Location: Unspecified
(0.0000°N, 0.0000°E)
Time: 13:25:45
(UTC+00:00)

Transit 2A - Pass Details

Date: 15 December 2021
Orbit: 591 x 967 km, 66.7° (Epoch: 21 January)

Event Time Altitude Azimuth Distance (km) Brightness Sun altitude
Rises 19:00:09 0° 181° (S) 3,000 9.4 -14.8°
Reaches altitude 10° 19:02:36 10° 170° (S) 2,139 8.5 -15.4°
Maximum altitude 19:06:53 31° 108° (ESE) 1,280 6.8 -16.4°
Enters shadow 19:08:15 27° 80° (E) 1,422 6.8 -16.7°
